Date,TemperatureHighF,TemperatureAvgF,TemperatureLowF,DewpointHighF,DewpointAvgF,DewpointLowF,HumidityHigh,HumidityAvg,HumidityLow,PressureMaxIn,PressureMinIn,WindSpeedMaxMPH,WindSpeedAvgMPH,GustSpeedMaxMPH,PrecipitationSumIn
2013-4-1,61.6,49.5,38.9,42.0,37.1,27.4,98,65,42,30.20,29.93,15,4,15,0.00
2013-4-2,49.0,43.9,40.2,32.2,26.3,20.3,69,50,34,30.32,30.20,14,4,14,0.00
2013-4-3,54.9,47.0,37.0,28.0,24.9,21.0,60,43,29,30.35,30.19,20,7,20,0.00
2013-4-4,46.4,44.3,40.3,44.7,37.5,25.0,97,80,44,30.19,30.03,12,2,12,0.29
2013-4-5,69.8,52.8,37.2,47.4,39.6,35.7,98,67,29,30.16,30.05,13,2,13,0.00
2013-4-6,76.1,60.2,38.9,47.7,39.9,36.6,92,53,26,30.13,29.92,18,5,18,0.00
2013-4-7,76.4,67.3,61.4,55.5,49.4,41.5,66,53,41,30.03,29.94,18,6,18,0.00
2013-4-8,78.9,68.2,56.2,59.0,54.2,49.3,81,62,43,29.99,29.88,22,5,22,0.00
2013-4-9,78.5,69.5,57.2,65.1,60.9,52.4,90,75,62,30.06,29.93,15,4,15,0.00
2013-4-10,87.3,76.8,69.4,64.6,62.2,57.4,80,62,43,29.99,29.72,20,6,20,0.00
2013-4-11,77.8,60.2,49.0,62.1,55.3,45.9,97,86,51,29.74,29.58,15,5,15,2.35
2013-4-12,63.9,51.8,37.5,45.8,41.1,36.1,96,69,44,30.03,29.74,20,5,20,0.00
2013-4-13,69.1,54.0,36.4,46.2,38.5,34.3,94,59,30,30.13,29.98,9,2,9,0.00
2013-4-14,76.3,61.0,46.1,52.6,47.3,42.5,92,64,34,29.99,29.82,26,5,26,0.00
2013-4-15,84.7,70.3,54.6,61.3,56.8,51.9,93,65,37,29.96,29.84,15,4,15,0.00
2013-4-16,81.0,73.5,66.9,69.9,66.0,60.7,93,78,65,30.08,29.94,15,4,15,0.00
2013-4-17,88.8,76.7,64.1,71.0,65.9,62.9,97,72,45,30.10,29.88,17,4,17,0.00
2013-4-18,84.9,76.8,55.3,67.7,64.0,53.9,95,66,49,29.88,29.58,24,10,24,1.19
2013-4-19,55.2,44.9,37.5,54.1,37.8,32.3,96,77,57,30.13,29.63,20,6,20,0.18
2013-4-20,62.9,48.8,32.6,42.5,35.9,31.3,97,66,35,30.34,30.14,13,2,13,0.01
2013-4-21,66.7,52.8,36.7,42.7,36.1,28.4,90,57,25,30.42,30.25,13,3,13,0.00
2013-4-22,75.8,59.7,41.8,49.0,44.2,38.1,91,61,33,30.28,30.06,12,2,12,0.00
2013-4-23,77.3,64.8,51.0,58.6,54.3,46.9,94,70,49,30.11,29.91,18,5,18,0.00
2013-4-24,67.7,50.7,37.6,60.3,45.9,36.2,95,84,70,30.32,29.84,18,5,18,0.58
2013-4-25,67.0,49.5,32.0,44.8,38.9,31.0,97,72,37,30.41,30.31,12,2,12,0.01
2013-4-26,54.7,49.1,40.7,51.2,46.3,39.1,96,91,71,30.48,30.28,10,2,10,0.31
2013-4-27,61.5,55.5,49.8,60.1,54.6,48.7,98,97,93,30.36,29.92,15,3,15,3.65
2013-4-28,64.9,58.6,50.0,59.2,55.3,48.9,99,90,69,29.97,29.89,12,2,12,0.04
2013-4-29,76.9,60.1,45.9,58.2,52.1,45.1,98,78,43,30.04,29.90,12,2,12,0.00
2013-4-30,84.1,65.9,49.0,61.5,54.6,47.9,97,72,36,30.01,29.92,12,2,12,0.00